EHI
0 0 0 0 0 0 0 0 0 0 0 0 0 1 2 2 1 0 0 0 0 0 0 0 0 0 0 0 0 0 1 2 2 3 3 3 3 2 1 0 0 0 0 0
0 0 0 0 0 0 0 0 0 0 0 0 0 1 2 2 1 0 0 0 0 0 0 0 0 0 0 0 0 0 0 1 1 2 2 3 3 3 1 0 0 0 0 0
0 0 0 0 0 0 0 0 0 0 0 0 0 0 1 1 0 0 0 0 0 0 0 0 0 0 0 0 0 0 0 0 0 1 1 1 2 3 2 1 0 0 0 0
0 0 0 0 0 0 0 0 0 0 0 0 0 0 0 0 0 0 0 0 0 0 0 0 0 0 0 0 0 0 0 0 0 0 0 0 1 3 2 1 0 0 0 0
0 0 0 0 0 0 0 0 0 0 0 0 0 0 0 0 0 0 0 0 0 0 0 0 0 0 0 0 0 0 0 0 0 0 0 0 1 2 2 1 0 0 0 0
0 0 0 0 0 0 0 0 0 0 0 0 0 0 0 0 0 0 0 0 0 0 0 0 0 0 0 0 0 0 0 0 0 0 0 0 0 1 1 0 0 0 0 0
0 0 0 0 0 0 0 0 0 0 0 0 0 0 0 0 0 0 0 0 0 0 0 0 0 0 0 0 0 0 0 0 0 0 0 0 0 0 0 0 0 0 0 0
0 0 0 0 0 0 0 0 0 0 0 0 1 1 0 0 0 0 0 0 0 0 0 0 0 0 0 0 0 0 0 0 0 0 0 0 0 0 0 0 0 0 0 0
0 0 0 0 0 0 0 0 0 0 0 0 1 1 0 0 0 0 0 0 0 0 0 0 0 0 0 0 0 0 0 0 0 0 0 0 0 0 0 0 0 0 0 0
0 0 0 0 0 0 0 0 0 0 0 0 1 1 0 0 0 0 0 0 0 0 0 0 0 0 0 0 0 0 0 0 0 0 0 0 0 0 0 0 0 0 0 0
0 0 0 0 0 0 0 0 0 0 0 0 0 0 0 0 0 0 0 0 0 0 0 0 0 0 0 0 0 0 0 0 0 0 0 0 0 0 0 0 0 0 0 0
0 0 0 0 0 0 0 0 0 0 0 0 0 0 0 0 0 0 0 0 0 0 0 0 0 0 0 0 0 0 0 0 0 0 0 0 0 0 0 0 0 0 0 0
0 0 0 0 0 0 0 0 0 0 0 0 0 0 0 0 0 0 0 0 0 0 0 0 0 0 0 0 0 0 0 0 0 0 0 0 0 0 0 0 0 0 0 0
0 0 0 0 0 0 0 0 0 0 0 0 0 0 0 0 0 0 0 0 0 0 0 0 0 0 0 0 0 0 0 0 0 0 0 0 0 0 0 0 0 0 0 0
0 0 0 0 0 0 0 0 0 0 0 0 0 0 0 0 0 0 0 0 0 0 0 0 0 0 0 0 0 0 0 0 0 0 0 0 0 0 0 0 0 0 0 0
0 0 0 0 0 0 0 0 0 0 0 0 0 0 0 0 0 0 0 0 0 0 0 0 0 0 0 0 0 0 0 0 0 0 0 0 0 0 0 0 0 0 0 0
0 0 0 0 0 0 0 0 0 0 0 0 0 0 0 0 0 0 0 0 0 0 0 0 0 0 0 0 0 0 0 0 0 0 0 0 0 0 0 0 0 0 0 0
0 0 0 0 0 0 0 0 0 0 0 0 0 0 0 0 0 0 0 0 0 0 0 0 0 0 0 0 0 0 0 0 0 0 0 0 0 0 0 0 0 0 0 0
0 0 0 0 0 0 0 0 0 0 0 0 0 0 0 0 0 0 0 0 0 0 0 0 0 0 0 0 0 0 0 0 0 0 0 0 0 0 0 0 0 0 0 0
0 0 0 0 0 0 0 0 0 0 0 0 0 0 0 0 0 0 0 0 0 0 0 0 0 0 0 0 0 0 0 0 0 0 0 0 0 0 0 0 0 0 0 0
0 0 0 0 0 0 0 0 0 0 0 0 0 0 0 0 0 0 0 0 0 0 0 0 0 0 0 0 0 0 0 0 0 0 0 0 0 0 0 0 0 0 0 0
0 0 0 0 0 0 0 0 0 0 0 0 0 0 0 0 0 0 0 0 0 0 0 0 0 0 0 0 0 0 0 0 0 0 0 0 0 0 0 0 0 0 0 0
0 0 0 0 0 0 0 0 0 0 0 0 0 0 0 0 0 0 0 0 0 0 0 0 0 0 0 0 0 0 0 0 0 0 0 0 0 0 0 0 0 0 0 0
0 0 0 0 0 0 0 0 0 0 0 0 0 0 0 0 0 0 0 0 0 0 0 0 0 0 0 0 0 0 0 0 0 0 0 0 0 0 0 0 0 0 0 0
0 0 0 0 0 0 0 0 0 0 0 0 0 0 0 0 0 0 0 0 0 0 0 0 0 0 0 0 0 0 0 0 0 0 0 0 0 0 0 0 0 0 0 0
0 0 0 0 0 0 0 0 0 0 0 0 0 0 0 0 0 0 0 0 0 0 0 0 0 0 0 0 0 0 0 0 0 0 0 0 0 0 0 0 0 0 0 0
0 0 0 0 0 0 0 0 0 0 0 0 0 0 0 0 0 0 0 0 0 0 0 0 0 0 0 0 0 0 0 0 0 0 0 0 0 0 0 0 0 0 0 0
Wind_Speed
6 6 4 5 7 5 5 6 7 8 7 8 5 4 4 4 5 5 5 5 6 5 4 3 2 2 1 2 2 2 1 1 2 2 2 2 2 2 2 1 2 2 2 3
3 3 4 6 7 6 6 5 5 4 7 5 2 1 2 4 6 6 6 6 6 6 5 4 3 3 2 2 2 2 2 2 2 1 2 2 2 2 1 1 2 2 2 2
4 5 4 5 4 3 2 2 3 4 6 3 1 1 3 4 5 6 7 6 7 6 6 5 4 4 3 3 2 2 2 2 2 2 2 2 2 1 1 1 1 2 2 2
2 3 4 6 2 1 2 2 1 3 4 3 3 2 2 3 5 5 5 6 6 5 4 3 3 3 2 2 2 2 1 2 2 2 2 1 1 1 1 1 1 2 2 3
1 2 6 6 3 2 2 4 2 2 4 3 2 3 3 1 3 5 4 4 5 5 4 4 3 3 3 2 2 2 2 2 2 2 1 1 2 2 1 1 1 2 2 2
1 1 5 5 4 4 0 3 3 3 2 2 2 2 4 2 1 2 1 2 3 4 3 4 3 3 3 2 2 3 3 3 3 2 2 2 2 2 1 1 2 2 3 3
2 4 7 5 5 4 1 6 5 3 3 2 3 4 5 3 2 2 2 3 4 4 4 4 4 4 3 2 4 4 2 2 2 2 2 2 1 1 1 1 1 2 3 4
2 3 7 4 4 1 5 6 5 4 3 3 3 3 3 2 2 3 2 3 4 4 4 3 3 4 3 4 4 2 1 1 1 1 1 1 0 1 0 0 1 2 3 4
6 7 6 4 5 6 4 5 5 4 4 3 2 2 2 2 2 3 3 4 4 4 3 2 3 4 4 4 2 2 1 1 1 0 0 1 1 1 1 0 1 2 2 3
5 8 8 8 7 6 5 6 6 4 3 3 3 3 2 2 2 3 3 4 4 4 4 3 3 3 4 3 3 3 2 1 0 0 0 1 0 1 1 2 2 2 3 4
7 9 8 6 6 6 5 5 4 4 4 3 3 3 3 3 3 3 3 3 4 4 5 4 3 3 3 3 3 3 2 1 1 1 1 1 1 2 3 4 4 4 4 4
9 9 7 10 8 6 6 6 6 4 4 3 3 4 3 3 3 3 4 4 4 4 4 4 3 2 2 3 4 4 2 2 1 1 1 1 1 3 4 4 5 6 8 7
10 10 9 10 9 7 7 7 6 5 4 3 3 3 3 3 3 4 4 5 6 5 5 4 3 3 3 3 4 4 3 3 1 1 1 1 1 2 4 6 6 5 5 5
8 7 8 8 8 6 5 5 4 3 3 3 2 2 3 2 3 4 5 6 5 5 4 4 3 3 3 3 3 3 3 3 3 2 2 2 2 2 2 3 5 5 5 5
9 8 9 8 6 5 4 3 2 3 2 2 2 3 4 4 4 5 4 5 5 4 4 4 3 3 3 3 4 3 3 2 2 2 2 2 2 2 2 3 3 4 4 5
8 6 5 4 5 4 3 3 3 4 4 3 3 4 4 4 4 4 4 5 6 5 4 4 4 4 3 4 4 3 2 3 3 2 2 2 2 2 2 2 3 3 4 4
5 5 4 4 5 5 5 5 5 5 4 5 5 4 3 3 3 3 4 5 5 5 5 5 5 3 3 4 4 3 2 2 2 1 2 2 2 2 2 3 3 3 3 3
8 8 7 7 6 6 5 5 4 5 5 5 4 4 4 5 5 5 5 5 4 3 3 4 4 3 3 4 4 3 2 2 1 2 2 2 2 2 2 2 3 3 3 3
7 6 6 6 6 5 5 5 5 5 5 5 5 5 6 6 6 5 5 6 5 4 4 3 4 4 3 4 4 2 2 2 1 1 1 2 2 2 2 2 3 3 2 2
6 5 5 5 4 4 4 4 4 4 5 5 5 5 5 5 5 5 5 5 5 5 4 4 4 3 3 4 4 3 3 2 2 2 1 1 2 2 2 2 2 2 2 2
6 5 4 4 4 4 4 4 4 5 5 5 6 7 7 6 6 6 5 4 4 4 4 5 4 3 3 3 4 2 2 2 2 2 2 2 2 2 2 3 2 2 2 2
5 4 4 4 4 4 3 3 4 5 5 5 6 6 6 6 6 5 5 4 4 5 4 3 3 4 4 4 3 3 2 2 2 2 2 2 2 2 3 3 2 2 1 1
5 4 4 4 4 4 3 3 4 5 6 6 7 7 7 6 6 5 4 3 4 6 4 4 5 6 6 3 3 3 3 2 2 2 2 2 2 2 2 2 2 1 1 1
6 4 4 3 2 2 3 4 4 4 5 6 6 7 7 5 4 4 3 4 6 6 4 5 7 7 6 3 3 3 3 3 3 2 2 2 2 2 2 1 1 1 1 1
5 4 3 2 3 3 4 3 2 3 3 3 4 5 5 5 5 4 4 5 7 6 4 5 7 7 5 3 4 3 3 3 3 2 2 2 2 1 1 1 1 1 1 1
5 4 4 4 4 3 3 3 3 3 3 3 3 3 4 3 4 4 4 5 6 6 4 3 4 5 4 4 4 4 3 3 3 2 2 2 2 1 1 1 1 1 1 1
4 3 2 2 2 2 3 3 4 4 5 5 4 4 4 4 4 5 5 4 4 4 4 3 4 4 4 4 3 3 3 3 2 2 2 2 2 1 1 1 0 1 1 1
Wind_Direction
247 258 256 258 266 249 228 218 223 251 257 273 257 226 204 181 168 163 171 175 173 174 177 173 172 178 184 192 181 166 166 213 245 251 255 265 277 290 302 312 318 328 348 351
292 278 276 278 274 258 250 242 244 269 279 290 293 138 162 174 174 181 186 190 187 182 180 183 188 193 199 209 197 179 207 242 254 252 256 262 271 275 294 319 329 346 350 344
284 305 327 288 270 252 246 247 212 243 270 306 326 254 204 183 182 195 195 193 192 191 191 191 193 191 198 211 197 193 231 256 269 255 254 259 265 289 296 314 333 330 324 331
288 356 266 252 273 270 244 286 295 276 286 274 258 268 235 188 190 200 201 194 191 187 187 189 186 184 190 192 185 199 231 261 275 266 261 281 288 280 290 298 316 308 308 314
139 268 278 296 329 344 288 296 327 316 328 344 16 16 327 251 203 198 203 199 188 183 180 177 180 176 166 186 194 207 230 246 256 250 248 290 294 273 268 289 306 298 294 303
138 240 258 265 318 319 264 280 332 351 342 341 21 333 284 279 241 203 195 188 175 163 156 168 182 161 161 190 206 227 234 243 249 239 223 237 264 258 253 246 269 292 303 298
207 241 266 277 327 359 21 274 309 303 277 260 252 240 255 265 257 198 186 181 166 161 170 183 174 155 170 200 227 236 238 247 247 234 222 223 250 247 253 279 300 307 307 306
186 229 260 320 6 308 255 283 288 277 265 269 274 281 272 257 220 182 168 171 164 165 174 176 163 158 180 223 234 227 210 241 254 241 228 199 166 288 275 279 311 314 316 315
203 228 259 292 275 276 269 283 282 271 276 260 276 282 283 254 200 183 186 183 167 162 166 177 175 174 193 229 216 185 175 220 238 287 113 121 150 238 300 289 286 301 304 303
266 270 275 283 281 285 282 282 281 275 271 248 251 255 256 227 198 182 191 182 162 155 168 194 204 200 209 210 180 172 181 200 164 147 314 332 252 218 242 264 272 280 285 291
267 278 294 286 271 275 292 293 290 294 280 244 224 246 230 204 200 191 186 178 163 170 184 200 205 220 218 185 166 170 185 198 198 212 231 293 302 264 249 251 235 241 264 265
254 260 265 279 281 279 276 270 265 274 285 277 239 232 217 199 203 190 180 170 170 185 191 194 195 220 214 182 171 173 191 207 204 209 238 268 308 320 296 264 271 257 245 248
253 270 267 275 281 279 266 260 257 252 241 249 249 219 201 194 194 182 179 177 185 193 189 186 192 211 211 187 176 181 194 206 205 214 236 263 274 290 312 322 320 303 288 281
261 271 278 274 276 277 268 262 265 269 260 231 225 204 187 179 180 185 192 192 186 176 175 177 186 214 213 185 181 193 199 205 206 220 234 252 263 270 275 295 312 317 316 311
273 267 261 271 278 280 272 257 248 256 249 250 230 191 183 183 194 203 196 175 162 165 176 178 191 224 209 182 183 191 195 209 212 225 239 254 268 279 285 284 289 301 314 320
286 284 265 258 264 272 266 244 234 237 228 229 223 204 199 199 197 187 175 167 165 180 191 191 208 220 197 179 178 186 201 216 217 227 251 271 279 287 296 297 301 306 309 311
281 282 276 265 254 252 249 244 230 225 219 216 217 209 196 177 169 176 180 180 181 188 191 195 213 216 190 180 179 190 201 217 226 239 255 266 276 285 289 293 296 300 298 299
253 251 244 238 237 242 251 251 241 226 215 216 209 196 189 183 188 190 184 171 167 183 207 206 204 197 190 183 179 183 188 205 225 251 266 272 282 285 288 287 291 294 299 313
272 264 259 257 245 229 231 235 233 223 208 193 194 201 200 196 189 179 168 164 173 199 224 210 190 186 194 194 180 179 189 205 229 248 255 278 294 294 289 289 295 295 298 307
290 279 270 268 261 241 235 239 227 218 209 194 193 194 191 191 178 171 170 183 200 204 198 186 182 190 197 194 183 180 187 201 218 242 254 257 274 287 293 298 297 295 300 306
293 284 275 268 267 254 233 216 206 213 210 195 192 195 193 184 171 167 170 201 225 192 180 181 184 192 193 187 180 174 184 198 217 234 241 252 272 289 296 297 298 300 305 315
291 276 272 271 266 262 245 217 207 205 201 195 192 185 175 172 171 176 192 203 202 179 172 178 186 190 186 177 170 175 189 203 218 225 233 246 262 276 284 287 292 302 316 319
293 276 268 262 255 254 247 224 205 198 196 191 187 181 180 178 174 177 203 207 182 182 179 188 191 189 183 174 176 187 197 207 220 231 242 251 255 257 266 276 285 300 310 313
297 281 272 273 263 233 228 229 215 209 196 189 186 181 172 169 185 202 191 175 176 175 183 190 192 191 182 183 185 193 203 211 222 230 239 252 259 261 255 250 281 300 300 307
294 285 275 251 232 235 230 212 192 187 177 179 179 179 177 175 182 186 172 175 176 174 183 189 189 190 188 186 191 197 205 214 219 217 220 227 241 242 233 230 247 278 303 330
294 276 258 244 235 224 202 183 185 186 176 173 179 178 172 166 166 164 165 171 172 176 181 180 180 183 186 188 194 197 203 213 216 212 209 213 216 210 214 234 266 304 4 30
296 286 282 287 275 215 185 182 187 190 184 179 180 182 173 167 165 167 168 168 170 176 180 179 177 181 187 192 195 197 200 205 203 203 200 200 196 196 195 200 322 45 71 68